Location: Trebic
(49.2170°N, 15.8830°E)
Time: 20:38:37
(UTC+02:00)

Transit 2A Rocket - Pass Details

Date: 01 August 2019
Orbit: 590 x 913 km, 66.7° (Epoch: 24 August)

Event Time Altitude Azimuth Distance (km) Brightness Sun altitude
Rises 08:13:18 0° 325° (NW) 3,217 7.9 25.0°
Reaches altitude 10° 08:16:13 10° 339° (NNW) 2,227 7.3 25.5°
Maximum altitude 08:20:17 24° 34° (NNE) 1,412 7.0 26.1°
Drops below altitude 10° 08:24:05 10° 88° (E) 2,061 9.1 26.8°
Sets 08:26:40 0° 103° (ESE) 2,922 9.3 27.2°
